����,���ϕ���(m/s),���ϕ���,�ő�u�ԕ���(m/s),�ő啗��������,�C��(��),���x(%),10���Ԉړ��ώZ�J��(mm),1���Ԉړ��ώZ�J��(mm),���J��(mm),�݌v�J��(mm)
2021-12-27T00:00:00+09:00,1.5,��쐼,4.3,��쐼,-0.6,80.2,0,0,0.5,0.5
2021-12-27T00:01:00+09:00,1.7,��쐼,4.3,��쐼,-0.6,80.1,0,0,0,0.5
2021-12-27T00:02:00+09:00,1.8,��쐼,4.3,��쐼,-0.5,79.9,0,0,0,0.5
2021-12-27T00:03:00+09:00,1.8,��쐼,4.3,��쐼,-0.5,80.1,0,0,0,0.5
2021-12-27T00:04:00+09:00,1.7,��쐼,4.3,��쐼,-0.5,79,0,0,0,0.5
2021-12-27T00:05:00+09:00,1.6,��쐼,4.3,��쐼,-0.6,78.6,0,0,0,0.5
2021-12-27T00:06:00+09:00,1.6,�쐼,4.3,��쐼,-0.6,78.3,0,0,0,0.5
2021-12-27T00:07:00+09:00,1.5,�쐼,4.3,��쐼,-0.6,78.2,0,0,0,0.5
2021-12-27T00:08:00+09:00,1.3,�쐼,4.3,��쐼,-0.8,77.9,0,0,0,0.5
2021-12-27T00:09:00+09:00,1.3,���쐼,4.3,��쐼,-0.8,78,0,0,0,0.5
2021-12-27T00:10:00+09:00,1.1,���k��,3.7,��쐼,-0.8,78.4,0,0,0,0.5
2021-12-27T00:11:00+09:00,0.8,�k��,2.8,��,-0.8,78.5,0,0,0,0.5
2021-12-27T00:12:00+09:00,0.7,�k��,1.7,��쓌,-0.8,79,0,0,0,0.5
2021-12-27T00:13:00+09:00,0.7,�k��,1.3,��,-0.7,79.4,0,0,0,0.5
2021-12-27T00:14:00+09:00,0.7,�k�k��,1.3,��,-0.7,79.4,0,0,0,0.5
2021-12-27T00:15:00+09:00,0.8,�k�k��,1.3,��,-0.7,79.3,0,0,0,0.5
2021-12-27T00:16:00+09:00,0.8,�k��,1.4,���k��,-0.6,79.2,0,0,0,0.5
2021-12-27T00:17:00+09:00,0.8,�k��,1.4,���k��,-0.7,78.8,0,0,0,0.5
2021-12-27T00:18:00+09:00,0.9,�k��,2.1,��,-0.8,78.6,0,0,0,0.5
2021-12-27T00:19:00+09:00,0.9,���k��,2.1,��,-0.9,78.5,0,0,0,0.5
2021-12-27T00:20:00+09:00,1,���k��,2.1,��,-0.8,78.8,0,0,0,0.5
2021-12-27T00:21:00+09:00,1,��,2.1,��,-0.8,79.2,0,0,0,0.5
2021-12-27T00:22:00+09:00,1.1,��,2.1,��,-0.8,79.6,0,0,0,0.5
2021-12-27T00:23:00+09:00,1.1,���쐼,2.1,��,-0.9,79.2,0,0,0,0.5
2021-12-27T00:24:00+09:00,1.2,���쐼,2.1,��,-0.9,79.1,0,0,0,0.5
2021-12-27T00:25:00+09:00,1.2,���쐼,2.1,��,-1,79.1,0,0,0,0.5
2021-12-27T00:26:00+09:00,1.2,���쐼,2.1,��,-1,79.3,0,0,0,0.5
2021-12-27T00:27:00+09:00,1.2,���쐼,2.1,��,-1,79.8,0,0,0,0.5
2021-12-27T00:28:00+09:00,1.1,���쐼,2,�쐼,-0.9,80.1,0,0,0,0.5
2021-12-27T00:29:00+09:00,1,���쐼,2,�쐼,-0.9,80.3,0,0,0,0.5
2021-12-27T00:30:00+09:00,0.9,���쐼,2,�쐼,-1,80.2,0,0,0,0.5
2021-12-27T00:31:00+09:00,0.9,���쐼,2,�쐼,-1,80.4,0,0,0,0.5
2021-12-27T00:32:00+09:00,0.7,���쐼,2,�쐼,-0.8,80.9,0,0,0,0.5
2021-12-27T00:33:00+09:00,0.6,��,1.6,���k��,-0.7,81.8,0,0,0,0.5
2021-12-27T00:34:00+09:00,0.5,��,1.6,���k��,-0.9,80.6,0,0,0,0.5
2021-12-27T00:35:00+09:00,0.5,���k��,1.3,�k��,-1,80.4,0,0,0,0.5
2021-12-27T00:36:00+09:00,0.6,���k��,2.3,�k��,-1.1,80.5,0,0,0,0.5
2021-12-27T00:37:00+09:00,0.7,���k��,2.3,�k��,-1.1,81,0,0,0,0.5
2021-12-27T00:38:00+09:00,0.8,�k��,2.3,�k��,-1.1,81.3,0,0,0,0.5
2021-12-27T00:39:00+09:00,0.9,�k��,2.6,���k��,-1.2,81.6,0,0,0,0.5
2021-12-27T00:40:00+09:00,0.9,�k��,2.6,���k��,-1.2,81.9,0,0,0,0.5
2021-12-27T00:41:00+09:00,1,�k��,2.6,���k��,-1.2,82.3,0,0,0,0.5
2021-12-27T00:42:00+09:00,1.2,�k��,2.6,���k��,-1.2,82.5,0,0,0,0.5
2021-12-27T00:43:00+09:00,1.2,���k��,2.6,���k��,-1.2,82.7,0,0,0,0.5
2021-12-27T00:44:00+09:00,1.3,���k��,2.6,���k��,-1.2,83,0,0,0,0.5
2021-12-27T00:45:00+09:00,1.2,���k��,2.6,���k��,-1.1,83.4,0,0,0,0.5
2021-12-27T00:46:00+09:00,1.1,���k��,2.6,���k��,-1,84.5,0,0,0,0.5
2021-12-27T00:47:00+09:00,1,��,2.6,���k��,-1,84,0,0,0,0.5
2021-12-27T00:48:00+09:00,0.8,��,2.6,���k��,-1,84,0,0,0,0.5
2021-12-27T00:49:00+09:00,0.7,���쐼,1.9,���k��,-1,84.2,0,0,0,0.5
2021-12-27T00:50:00+09:00,0.7,�쐼,1.9,���k��,-1.1,84,0,0,0,0.5
2021-12-27T00:51:00+09:00,0.6,��,1.9,���k��,-1,84.2,0,0,0,0.5
2021-12-27T00:52:00+09:00,0.5,��쓌,1.6,��,-0.9,85.3,0,0,0,0.5
2021-12-27T00:53:00+09:00,0.4,�쓌,1.6,��,-1.1,84.2,0,0,0,0.5
2021-12-27T00:54:00+09:00,0.4,���쓌,1,�k,-1.3,83.3,0,0,0,0.5
2021-12-27T00:55:00+09:00,0.4,���쓌,1,�k,-1.4,83.4,0,0,0,0.5
2021-12-27T00:56:00+09:00,0.4,��,1,�k,-1.4,83.6,0,0,0,0.5
2021-12-27T00:57:00+09:00,0.4,���k��,1,�k,-1.4,84.2,0,0,0,0.5
2021-12-27T00:58:00+09:00,0.5,���k��,1,�k,-1.3,84.7,0,0,0,0.5
2021-12-27T00:59:00+09:00,0.5,�k�k��,1,�k,-1.3,84.9,0,0,0,0.5
2021-12-27T01:00:00+09:00,0.4,�k,1,�k,-1.3,84.8,0,0,0,0.5
2021-12-27T01:01:00+09:00,0.4,�k�k��,1,�k,-1.3,84.8,0,0,0,0.5
2021-12-27T01:02:00+09:00,0.4,�k��,1,�k,-1.2,85.1,0,0,0,0.5
2021-12-27T01:03:00+09:00,0.3,�k��,1,�k,-1.2,85,0,0,0,0.5
2021-12-27T01:04:00+09:00,0.3,�k��,1,�k,-1.1,85.6,0,0,0,0.5
2021-12-27T01:05:00+09:00,0.2,�É�,0.8,�k,-1.2,85.2,0,0,0,0.5
2021-12-27T01:06:00+09:00,0.2,�É�,0.8,�k,-1.4,84.4,0,0,0,0.5
2021-12-27T01:07:00+09:00,0.3,�k��,1.4,�k��,-1.5,84.1,0,0,0,0.5
2021-12-27T01:08:00+09:00,0.4,�k��,1.5,��,-1.5,84.3,0,0,0,0.5
2021-12-27T01:09:00+09:00,0.5,���k��,1.5,��,-1.5,84.7,0,0,0,0.5
2021-12-27T01:10:00+09:00,0.5,���k��,1.5,��,-1.5,84.9,0,0,0,0.5
2021-12-27T01:11:00+09:00,0.6,���k��,1.5,��,-1.5,84.9,0,0,0,0.5
2021-12-27T01:12:00+09:00,0.6,���k��,1.5,��,-1.5,84.9,0,0,0,0.5
2021-12-27T01:13:00+09:00,0.7,���k��,2,���k��,-1.5,85.2,0,0,0,0.5
2021-12-27T01:14:00+09:00,0.8,���k��,2.4,���k��,-1.5,85.3,0,0,0,0.5
2021-12-27T01:15:00+09:00,1,��,2.7,��,-1.5,85.1,0,0,0,0.5
2021-12-27T01:16:00+09:00,1.1,��,3.7,��,-1.5,85.2,0,0,0,0.5
2021-12-27T01:17:00+09:00,1.3,��,3.7,��,-1.4,85.7,0,0,0,0.5
2021-12-27T01:18:00+09:00,1.4,��,3.7,��,-1.3,86,0,0,0,0.5
2021-12-27T01:19:00+09:00,1.4,��,3.7,��,-1.3,85.9,0,0,0,0.5
2021-12-27T01:20:00+09:00,1.4,��,3.7,��,-1.4,85.4,0,0,0,0.5
2021-12-27T01:21:00+09:00,1.5,��,3.7,��,-1.3,85.4,0,0,0,0.5
2021-12-27T01:22:00+09:00,1.5,��,3.7,��,-1.4,85.2,0,0,0,0.5
2021-12-27T01:23:00+09:00,1.6,��,3.7,��,-1.4,85.3,0,0,0,0.5
2021-12-27T01:24:00+09:00,1.5,��,3.7,��,-1.4,85.1,0,0,0,0.5
2021-12-27T01:25:00+09:00,1.4,��,3.7,��,-1.5,84.8,0,0,0,0.5
2021-12-27T01:26:00+09:00,1.3,��,3.7,��,-1.4,85,0,0,0,0.5
2021-12-27T01:27:00+09:00,1.2,��,3.1,���k��,-1.4,85.3,0,0,0,0.5
2021-12-27T01:28:00+09:00,1.1,��,3.1,���k��,-1.5,84.9,0,0,0,0.5
2021-12-27T01:29:00+09:00,1,��,3.1,���k��,-1.5,84.8,0,0,0,0.5
2021-12-27T01:30:00+09:00,1.1,��,3.1,���k��,-1.5,85,0,0,0,0.5
2021-12-27T01:31:00+09:00,1.2,��,3.1,���k��,-1.6,84.8,0,0,0,0.5
2021-12-27T01:32:00+09:00,1.2,��,3.1,���k��,-1.6,84.8,0,0,0,0.5
2021-12-27T01:33:00+09:00,1.4,��,3.6,��,-1.6,84.8,0,0,0,0.5
2021-12-27T01:34:00+09:00,1.5,��,3.6,��,-1.5,85.2,0.5,0.5,0.5,1
2021-12-27T01:35:00+09:00,1.7,��,4,���쐼,-1.5,85.2,0.5,0.5,0.5,1
2021-12-27T01:36:00+09:00,1.7,���쐼,4,���쐼,-1.4,85.4,0.5,0.5,0.5,1
2021-12-27T01:37:00+09:00,1.7,���쐼,4,���쐼,-1.6,84.7,0.5,0.5,0.5,1
2021-12-27T01:38:00+09:00,1.7,���쐼,4,���쐼,-1.8,84.2,0.5,0.5,0.5,1
2021-12-27T01:39:00+09:00,1.7,���쐼,4,���쐼,-1.9,84,0.5,0.5,0.5,1
2021-12-27T01:40:00+09:00,1.7,�쐼,4,���쐼,-1.9,84.2,0.5,0.5,0.5,1
2021-12-27T01:41:00+09:00,1.7,��쐼,4,���쐼,-1.8,84.7,0.5,0.5,0.5,1
2021-12-27T01:42:00+09:00,1.6,��,4,���쐼,-1.8,84.7,0.5,0.5,0.5,1
2021-12-27T01:43:00+09:00,1.3,��쓌,4,���쐼,-1.8,85.1,0.5,0.5,0.5,1
2021-12-27T01:44:00+09:00,1.2,��쓌,4,���쐼,-1.9,85,0,0.5,0.5,1
2021-12-27T01:45:00+09:00,1.2,�쓌,2.8,���쓌,-1.8,85.2,0,0.5,0.5,1
2021-12-27T01:46:00+09:00,1.3,�쓌,3.3,�쓌,-1.8,85.3,0,0.5,0.5,1
2021-12-27T01:47:00+09:00,1.3,�쓌,3.3,�쓌,-1.8,85.7,0,0.5,0.5,1
2021-12-27T01:48:00+09:00,1.4,�쓌,3.3,�쓌,-1.8,85.6,0,0.5,0.5,1
2021-12-27T01:49:00+09:00,1.5,�쓌,3.3,�쓌,-1.9,85.3,0,0.5,0.5,1
2021-12-27T01:50:00+09:00,1.3,�쓌,3.3,�쓌,-1.8,85.4,0,0.5,0.5,1
2021-12-27T01:51:00+09:00,1.2,�쓌,3.3,�쓌,-1.9,85.7,0,0.5,0.5,1
2021-12-27T01:52:00+09:00,1.2,���쓌,3.3,�쓌,-2,85.3,0,0.5,0.5,1
2021-12-27T01:53:00+09:00,1.3,���쓌,3.3,�쓌,-2,85.3,0,0.5,0.5,1
2021-12-27T01:54:00+09:00,1.3,���쓌,3.3,�쓌,-1.9,85.5,0,0.5,0.5,1
2021-12-27T01:55:00+09:00,1.1,���쓌,3.3,�쓌,-1.9,85.7,0,0.5,0.5,1
2021-12-27T01:56:00+09:00,1,���쓌,3.1,���쓌,-1.8,86,0,0.5,0.5,1
2021-12-27T01:57:00+09:00,0.8,��,3.1,���쓌,-2,85.7,0,0.5,0.5,1
2021-12-27T01:58:00+09:00,0.7,��,1.9,��쓌,-2.2,84.7,0,0.5,0.5,1
2021-12-27T01:59:00+09:00,0.6,��,1.7,���k��,-2.1,85.1,0,0.5,0.5,1
2021-12-27T02:00:00+09:00,0.6,���k��,1.7,���k��,-2.1,85.4,0,0.5,0.5,1
2021-12-27T02:01:00+09:00,0.6,���k��,1.7,���k��,-2.2,85.2,0,0.5,0.5,1
2021-12-27T02:02:00+09:00,0.6,���k��,1.7,���k��,-2,85.3,0,0.5,0.5,1
2021-12-27T02:03:00+09:00,0.5,��,1.6,���k��,-1.8,86.5,0,0.5,0.5,1
2021-12-27T02:04:00+09:00,0.5,���k��,1.3,���쓌,-2,85.8,0,0.5,0.5,1
2021-12-27T02:05:00+09:00,0.6,���k��,1.4,�k��,-2,85.1,0,0.5,0.5,1
2021-12-27T02:06:00+09:00,0.7,���k��,1.5,�k��,-2,85.2,0,0.5,0.5,1
2021-12-27T02:07:00+09:00,0.7,���k��,1.5,�k��,-2,85.2,0,0.5,0.5,1
2021-12-27T02:08:00+09:00,0.8,���k��,1.5,�k��,-2,85.2,0,0.5,0.5,1
2021-12-27T02:09:00+09:00,0.8,���k��,1.5,�k��,-2,85.2,0,0.5,0.5,1
2021-12-27T02:10:00+09:00,0.7,���k��,1.5,�k��,-1.8,85.3,0,0.5,0.5,1
2021-12-27T02:11:00+09:00,0.8,�k��,1.5,�k��,-1.8,85.5,0,0.5,0.5,1
2021-12-27T02:12:00+09:00,0.8,�k��,1.5,�k��,-1.8,84.9,0,0.5,0.5,1
2021-12-27T02:13:00+09:00,0.7,�k��,1.5,�k��,-1.7,84.9,0,0.5,0.5,1
2021-12-27T02:14:00+09:00,0.7,�k��,1.5,�k��,-1.7,84.4,0,0.5,0.5,1
2021-12-27T02:15:00+09:00,0.7,�k��,1.5,�k��,-1.8,83.9,0,0.5,0.5,1
2021-12-27T02:16:00+09:00,0.6,���k��,1.5,�k��,-1.8,83.5,0,0.5,0.5,1
2021-12-27T02:17:00+09:00,0.5,���k��,1.2,���k��,-1.9,83.1,0,0.5,0.5,1
2021-12-27T02:18:00+09:00,0.4,���k��,1.2,���k��,-1.8,83.2,0,0.5,0.5,1
2021-12-27T02:19:00+09:00,0.3,���k��,1.1,���쓌,-1.8,83,0,0.5,0.5,1
2021-12-27T02:20:00+09:00,0.4,���k��,1.4,�k�k��,-1.8,82.8,0,0.5,0.5,1
2021-12-27T02:21:00+09:00,0.5,���k��,1.4,�k�k��,-1.9,82.5,0,0.5,0.5,1
2021-12-27T02:22:00+09:00,0.5,���k��,1.4,�k�k��,-2,82.1,0,0.5,0.5,1
2021-12-27T02:23:00+09:00,0.5,�k��,1.4,�k�k��,-2,81.9,0,0.5,0.5,1
2021-12-27T02:24:00+09:00,0.5,�k�k��,1.4,�k�k��,-2,82.1,0,0.5,0.5,1
2021-12-27T02:25:00+09:00,0.5,�k�k��,1.4,�k�k��,-2.1,81.6,0,0.5,0.5,1
2021-12-27T02:26:00+09:00,0.6,�k�k��,1.6,�k,-2.1,81.4,0,0.5,0.5,1
2021-12-27T02:27:00+09:00,0.7,�k,1.7,�k,-2.2,81.4,0,0.5,0.5,1
2021-12-27T02:28:00+09:00,0.8,�k,1.7,�k,-2.2,81.7,0,0.5,0.5,1
2021-12-27T02:29:00+09:00,0.9,�k�k��,1.7,�k,-2.1,82,0,0.5,0.5,1
2021-12-27T02:30:00+09:00,0.9,�k�k��,1.7,�k,-2,82.3,0,0.5,0.5,1
2021-12-27T02:31:00+09:00,0.9,�k�k��,1.7,�k,-2,82.7,0,0.5,0.5,1
2021-12-27T02:32:00+09:00,0.8,�k��,1.7,�k,-1.9,82.8,0,0.5,0.5,1
2021-12-27T02:33:00+09:00,0.9,�k��,1.7,�k,-1.9,82.8,0,0.5,0.5,1
2021-12-27T02:34:00+09:00,1,���k��,1.9,���쓌,-1.9,82.5,0,0,0.5,1
2021-12-27T02:35:00+09:00,1.1,���k��,2.6,���쓌,-2,82.5,0,0,0.5,1
2021-12-27T02:36:00+09:00,1.3,��,3,���쓌,-1.9,82.5,0,0,0.5,1
2021-12-27T02:37:00+09:00,1.4,��,3,���쓌,-1.9,82.6,0,0,0.5,1
2021-12-27T02:38:00+09:00,1.4,��,3,���쓌,-1.8,82.8,0,0,0.5,1
2021-12-27T02:39:00+09:00,1.4,��,3,���쓌,-1.8,82.7,0,0,0.5,1
2021-12-27T02:40:00+09:00,1.4,��,3,���쓌,-1.9,82.4,0,0,0.5,1
2021-12-27T02:41:00+09:00,1.4,��,3,���쓌,-1.7,82.5,0,0,0.5,1
2021-12-27T02:42:00+09:00,1.4,��,3,���쓌,-1.7,82.6,0,0,0.5,1
2021-12-27T02:43:00+09:00,1.4,��,3,���쓌,-1.7,82.1,0,0,0.5,1
2021-12-27T02:44:00+09:00,1.3,���k��,3,���쓌,-1.8,81.8,0,0,0.5,1
2021-12-27T02:45:00+09:00,1.1,���k��,3,���쓌,-1.8,81.5,0,0,0.5,1
2021-12-27T02:46:00+09:00,0.9,���k��,3,���쓌,-1.8,81.5,0,0,0.5,1
2021-12-27T02:47:00+09:00,0.8,�k��,1.9,�k�k��,-1.6,81.6,0,0,0.5,1
2021-12-27T02:48:00+09:00,0.7,���k��,1.9,�k�k��,-1.5,82,0,0,0.5,1
2021-12-27T02:49:00+09:00,0.7,��쓌,2,���쐼,-1.5,81.8,0,0,0.5,1
2021-12-27T02:50:00+09:00,0.8,�쐼,4.5,��,-1.5,81.2,0,0,0.5,1
2021-12-27T02:51:00+09:00,1,��쐼,4.5,��,-1.5,80.7,0,0,0.5,1
2021-12-27T02:52:00+09:00,1,��,4.5,��,-1.4,80.5,0,0,0.5,1
2021-12-27T02:53:00+09:00,1,��,4.5,��,-1.4,80.2,0,0,0.5,1
2021-12-27T02:54:00+09:00,1.2,��,4.5,��,-1.4,79.6,0,0,0.5,1
2021-12-27T02:55:00+09:00,1.3,��,4.5,��,-1.4,79.1,0,0,0.5,1
2021-12-27T02:56:00+09:00,1.3,��,4.5,��,-1.4,78.4,0,0,0.5,1
2021-12-27T02:57:00+09:00,1.5,��,5.1,��,-1.4,77.8,0,0,0.5,1
2021-12-27T02:58:00+09:00,1.8,��,5.1,��,-1.4,77.4,0,0,0.5,1
2021-12-27T02:59:00+09:00,2,��,5.1,��,-1.3,77.2,0,0,0.5,1
2021-12-27T03:00:00+09:00,2,��,5.1,��,-1.3,76.6,0,0,0.5,1
2021-12-27T03:01:00+09:00,2.1,��,5.1,��,-1.3,75.9,0,0,0.5,1
2021-12-27T03:02:00+09:00,2.1,��,5.1,��,-1.3,74.9,0,0,0.5,1
2021-12-27T03:03:00+09:00,2.2,��,5.1,��,-1.4,74.3,0,0,0.5,1
2021-12-27T03:04:00+09:00,2.3,��,5.1,��,-1.5,73.7,0,0,0.5,1
2021-12-27T03:05:00+09:00,,,,,,,,,,
2021-12-27T03:06:00+09:00,2.5,��,5.1,��,-1.4,73.7,0,0,0.5,1
2021-12-27T03:07:00+09:00,2.5,��,4.9,��쐼,-1.5,73.4,0,0,0.5,1
2021-12-27T03:08:00+09:00,2.3,��,4.8,��쐼,-1.5,73.1,0,0,0.5,1
2021-12-27T03:09:00+09:00,2.1,��,4.8,��쐼,-1.5,72.8,0,0,0.5,1
2021-12-27T03:10:00+09:00,2,��,4.8,��쐼,-1.5,72.8,0,0,0.5,1
2021-12-27T03:11:00+09:00,1.9,��쐼,4.8,��쐼,-1.5,72.9,0,0,0.5,1
2021-12-27T03:12:00+09:00,1.9,��쐼,4.8,��쐼,-1.5,73,0,0,0.5,1
2021-12-27T03:13:00+09:00,2,��쐼,5,��쐼,-1.5,72.8,0,0,0.5,1
2021-12-27T03:14:00+09:00,2.1,��쐼,5,��쐼,-1.5,72.7,0,0,0.5,1
2021-12-27T03:15:00+09:00,2.1,��쐼,5,��쐼,-1.5,72.5,0,0,0.5,1
2021-12-27T03:16:00+09:00,2.1,��쐼,5,��쐼,-1.5,72.2,0,0,0.5,1
2021-12-27T03:17:00+09:00,2.3,��쐼,8.2,��쐼,-1.4,72.3,0,0,0.5,1
2021-12-27T03:18:00+09:00,2.7,��쐼,8.2,��쐼,-1.3,72.4,0,0,0.5,1
2021-12-27T03:19:00+09:00,3,��쐼,8.2,��쐼,-1.3,72.2,0,0,0.5,1
2021-12-27T03:20:00+09:00,3.1,��쐼,8.2,��쐼,-1.3,71.6,0,0,0.5,1
2021-12-27T03:21:00+09:00,3.5,��쐼,8.2,��쐼,-1.4,71.2,0,0,0.5,1
2021-12-27T03:22:00+09:00,3.8,��쐼,8.2,��쐼,-1.3,71,0,0,0.5,1
2021-12-27T03:23:00+09:00,3.9,��쐼,8.2,��쐼,-1.4,70.8,0,0,0.5,1
2021-12-27T03:24:00+09:00,3.9,��쐼,8.2,��쐼,-1.4,70.8,0,0,0.5,1
2021-12-27T03:25:00+09:00,4.2,��쐼,8.2,��쐼,-1.4,70.9,0,0,0.5,1
2021-12-27T03:26:00+09:00,4.3,��쐼,8.2,��쐼,-1.4,71.2,0,0,0.5,1
2021-12-27T03:27:00+09:00,4.2,��쐼,7.9,��쐼,-1.4,71.1,0,0,0.5,1
2021-12-27T03:28:00+09:00,4,��쐼,7.9,��쐼,-1.4,71.3,0,0,0.5,1
2021-12-27T03:29:00+09:00,4,��쐼,7.9,��쐼,-1.4,71.3,0,0,0.5,1
2021-12-27T03:30:00+09:00,4.4,��쐼,8.3,��쐼,-1.4,71,0,0,0.5,1
2021-12-27T03:31:00+09:00,4.5,��쐼,8.3,��쐼,-1.4,70.9,0,0,0.5,1
2021-12-27T03:32:00+09:00,4.4,��쐼,8.3,��쐼,-1.4,70.7,0,0,0.5,1
2021-12-27T03:33:00+09:00,4.2,��쐼,8.3,��쐼,-1.4,70.6,0,0,0.5,1
2021-12-27T03:34:00+09:00,4.2,��쐼,8.3,��쐼,-1.4,71.1,0,0,0.5,1
2021-12-27T03:35:00+09:00,4,��쐼,8.3,��쐼,-1.4,71.1,0,0,0.5,1
2021-12-27T03:36:00+09:00,4.1,��쐼,8.3,��쐼,-1.4,71.2,0,0,0.5,1
2021-12-27T03:37:00+09:00,4.2,��쐼,8.3,��쐼,-1.4,71.4,0,0,0.5,1
2021-12-27T03:38:00+09:00,4.2,��쐼,8.3,��쐼,-1.4,71.7,0,0,0.5,1
2021-12-27T03:39:00+09:00,3.9,��쐼,8.3,��쐼,-1.4,72,0,0,0.5,1
2021-12-27T03:40:00+09:00,3.6,��쐼,7.4,��쐼,-1.3,72.3,0,0,0.5,1
2021-12-27T03:41:00+09:00,3.4,��쐼,7.1,��,-1.4,72,0,0,0.5,1
2021-12-27T03:42:00+09:00,3.4,��쐼,7.1,��,-1.4,71.5,0,0,0.5,1
2021-12-27T03:43:00+09:00,3.4,��쐼,7.1,��,-1.4,71.4,0,0,0.5,1
2021-12-27T03:44:00+09:00,3.4,��쐼,7.1,��,-1.4,71.3,0,0,0.5,1
2021-12-27T03:45:00+09:00,3.5,��쐼,7.1,��,-1.4,71.1,0,0,0.5,1
2021-12-27T03:46:00+09:00,3.3,��쐼,6.6,�쐼,-1.4,71,0,0,0.5,1
2021-12-27T03:47:00+09:00,3.2,��쐼,6.6,�쐼,-1.4,70.9,0,0,0.5,1
2021-12-27T03:48:00+09:00,3,��쐼,6.6,�쐼,-1.4,70.8,0,0,0.5,1
2021-12-27T03:49:00+09:00,3,�쐼,6.6,�쐼,-1.4,70.9,0,0,0.5,1
2021-12-27T03:50:00+09:00,2.8,�쐼,6.6,�쐼,-1.4,71.2,0,0,0.5,1
2021-12-27T03:51:00+09:00,2.8,�쐼,6.6,�쐼,-1.5,71.3,0,0,0.5,1
2021-12-27T03:52:00+09:00,2.8,�쐼,6.6,�쐼,-1.5,71.2,0,0,0.5,1
2021-12-27T03:53:00+09:00,2.8,�쐼,6.6,�쐼,-1.4,71.8,0,0,0.5,1
2021-12-27T03:54:00+09:00,2.9,�쐼,6.6,�쐼,-1.5,71.8,0,0,0.5,1
2021-12-27T03:55:00+09:00,2.8,�쐼,6,��쐼,-1.5,71.7,0,0,0.5,1
2021-12-27T03:56:00+09:00,2.8,�쐼,6,��쐼,-1.5,71.5,0,0,0.5,1
2021-12-27T03:57:00+09:00,2.7,��쐼,6,��쐼,-1.6,71.4,0,0,0.5,1
2021-12-27T03:58:00+09:00,2.8,��쐼,6,��쐼,-1.5,71.4,0,0,0.5,1
2021-12-27T03:59:00+09:00,3.1,��쐼,6,��쐼,-1.5,71.4,0,0,0.5,1
2021-12-27T04:00:00+09:00,3.2,��쐼,5.9,��쐼,-1.5,71.6,0,0,0.5,1
2021-12-27T04:01:00+09:00,3.2,��쐼,5.9,��쐼,-1.5,71.5,0,0,0.5,1
2021-12-27T04:02:00+09:00,3.2,��쐼,5.9,��쐼,-1.5,71.4,0,0,0.5,1
2021-12-27T04:03:00+09:00,3.1,��쐼,5.9,��쐼,-1.6,71.2,0,0,0.5,1
2021-12-27T04:04:00+09:00,2.9,��쐼,5.9,��쐼,-1.6,71,0,0,0.5,1
2021-12-27T04:05:00+09:00,2.9,��쐼,5.9,��쐼,-1.6,71.2,0,0,0.5,1
2021-12-27T04:06:00+09:00,2.7,��쐼,5.9,��쐼,-1.5,72.3,0,0,0.5,1
2021-12-27T04:07:00+09:00,2.6,��쐼,5.9,��쐼,-1.5,72.6,0,0,0.5,1
2021-12-27T04:08:00+09:00,2.5,��쐼,5.9,��쐼,-1.5,72.4,0,0,0.5,1
2021-12-27T04:09:00+09:00,2.2,��쐼,5.9,��쐼,-1.5,72.4,0,0,0.5,1
2021-12-27T04:10:00+09:00,2,��쐼,5.4,��쐼,-1.3,73,0,0,0.5,1
2021-12-27T04:11:00+09:00,1.8,��쐼,4.6,��,-1.4,72.9,0,0,0.5,1
2021-12-27T04:12:00+09:00,1.8,��쐼,4,��,-1.5,71.9,0,0,0.5,1
2021-12-27T04:13:00+09:00,1.9,��쐼,4.8,��쐼,-1.5,71.9,0,0,0.5,1
2021-12-27T04:14:00+09:00,2,��쐼,4.8,��쐼,-1.5,71.9,0,0,0.5,1
2021-12-27T04:15:00+09:00,2,��쐼,4.8,��쐼,-1.5,71.9,0,0,0.5,1
2021-12-27T04:16:00+09:00,2.1,��쐼,4.8,��쐼,-1.5,71.5,0,0,0.5,1
2021-12-27T04:17:00+09:00,2.1,��쐼,4.8,��쐼,-1.5,71.7,0,0,0.5,1
2021-12-27T04:18:00+09:00,2.1,��쐼,4.8,��쐼,-1.5,71.5,0,0,0.5,1
2021-12-27T04:19:00+09:00,2.1,��쐼,5.5,��,-1.5,71.3,0,0,0.5,1
2021-12-27T04:20:00+09:00,2.2,��쐼,5.5,��,-1.6,71.5,0,0,0.5,1
2021-12-27T04:21:00+09:00,2.3,��쐼,5.5,��,-1.5,71.7,0,0,0.5,1
2021-12-27T04:22:00+09:00,2.2,�쐼,5.5,��,-1.5,72.3,0,0,0.5,1
2021-12-27T04:23:00+09:00,2.2,�쐼,5.5,��,-1.5,72,0,0,0.5,1
2021-12-27T04:24:00+09:00,2.1,�쐼,5.5,��,-1.5,72,0,0,0.5,1
2021-12-27T04:25:00+09:00,2.2,�쐼,5.5,��,-1.6,72,0,0,0.5,1
2021-12-27T04:26:00+09:00,2.2,�쐼,5.5,��,-1.6,72.1,0,0,0.5,1
2021-12-27T04:27:00+09:00,2.3,�쐼,5.5,��,-1.5,72.2,0,0,0.5,1
2021-12-27T04:28:00+09:00,2.3,�쐼,5.5,��,-1.4,72.8,0,0,0.5,1
2021-12-27T04:29:00+09:00,2.3,�쐼,4.4,��쐼,-1.5,72.4,0,0,0.5,1
2021-12-27T04:30:00+09:00,2.2,�쐼,4.4,��쐼,-1.5,72.2,0,0,0.5,1
2021-12-27T04:31:00+09:00,2.1,�쐼,4.4,��쐼,-1.6,72.2,0,0,0.5,1
2021-12-27T04:32:00+09:00,2.1,�쐼,4.4,��쐼,-1.6,72.3,0,0,0.5,1
2021-12-27T04:33:00+09:00,2.1,�쐼,4.6,�쐼,-1.6,72.5,0,0,0.5,1
2021-12-27T04:34:00+09:00,2.2,��쐼,5.1,�쐼,-1.5,72.7,0,0,0.5,1
2021-12-27T04:35:00+09:00,2.2,�쐼,5.2,�쐼,-1.5,72.7,0,0,0.5,1
2021-12-27T04:36:00+09:00,2.2,�쐼,5.2,�쐼,-1.5,72.8,0,0,0.5,1
2021-12-27T04:37:00+09:00,2.4,�쐼,7,��,-1.5,72.5,0,0,0.5,1
2021-12-27T04:38:00+09:00,2.6,�쐼,7,��,-1.4,73.2,0,0,0.5,1
2021-12-27T04:39:00+09:00,2.7,�쐼,7,��,-1.4,73.5,0,0,0.5,1
2021-12-27T04:40:00+09:00,2.9,�쐼,7,��,-1.4,73.5,0,0,0.5,1
2021-12-27T04:41:00+09:00,3.1,�쐼,7,��,-1.5,73.1,0,0,0.5,1
2021-12-27T04:42:00+09:00,3.3,�쐼,7,��,-1.6,73.2,0,0,0.5,1
2021-12-27T04:43:00+09:00,3.3,�쐼,7,��,-1.6,73.5,0,0,0.5,1
2021-12-27T04:44:00+09:00,3.2,�쐼,7,��,-1.5,73.6,0,0,0.5,1
2021-12-27T04:45:00+09:00,3.2,�쐼,7,��,-1.5,73.6,0,0,0.5,1
2021-12-27T04:46:00+09:00,3.1,�쐼,7,��,-1.5,73.5,0,0,0.5,1
2021-12-27T04:47:00+09:00,3,�쐼,6.1,���쐼,-1.5,73.3,0,0,0.5,1
2021-12-27T04:48:00+09:00,3,�쐼,6.7,���쐼,-1.5,73.2,0,0,0.5,1
2021-12-27T04:49:00+09:00,3.1,�쐼,6.7,���쐼,-1.4,72.9,0,0,0.5,1
2021-12-27T04:50:00+09:00,3.1,�쐼,6.7,���쐼,-1.5,72.6,0,0,0.5,1
2021-12-27T04:51:00+09:00,3,�쐼,6.7,���쐼,-1.5,72.5,0,0,0.5,1
2021-12-27T04:52:00+09:00,3.2,�쐼,6.7,���쐼,-1.4,72.8,0,0,0.5,1
2021-12-27T04:53:00+09:00,3,�쐼,6.7,���쐼,-1.4,73.1,0,0,0.5,1
2021-12-27T04:54:00+09:00,3,�쐼,6.7,���쐼,-1.4,73.1,0,0,0.5,1
2021-12-27T04:55:00+09:00,2.9,�쐼,6.7,���쐼,-1.4,73.3,0,0,0.5,1
2021-12-27T04:56:00+09:00,2.8,�쐼,6.7,���쐼,-1.4,73.6,0,0,0.5,1
2021-12-27T04:57:00+09:00,2.6,�쐼,6.7,���쐼,-1.4,73.8,0,0,0.5,1
2021-12-27T04:58:00+09:00,2.2,�쐼,5.4,��쐼,-1.4,74.1,0,0,0.5,1
2021-12-27T04:59:00+09:00,2,�쐼,5.4,��쐼,-1.4,74.3,0,0,0.5,1
2021-12-27T05:00:00+09:00,1.8,��쐼,5.4,��쐼,-1.3,75,0,0,0.5,1
2021-12-27T05:01:00+09:00,1.7,�쐼,5.4,��쐼,-1.4,74.8,0,0,0.5,1
2021-12-27T05:02:00+09:00,1.5,�쐼,5.1,��,-1.5,74.6,0,0,0.5,1
2021-12-27T05:03:00+09:00,1.4,�쐼,5.1,��,-1.5,74.6,0,0,0.5,1
2021-12-27T05:04:00+09:00,1.4,�쐼,4.2,��,-1.5,74.5,0,0,0.5,1
2021-12-27T05:05:00+09:00,1.5,�쐼,4,��,-1.5,74.4,0,0,0.5,1
2021-12-27T05:06:00+09:00,1.7,�쐼,5.5,��,-1.5,74.1,0,0,0.5,1
2021-12-27T05:07:00+09:00,2,�쐼,5.5,��,-1.6,73.8,0,0,0.5,1
2021-12-27T05:08:00+09:00,2.2,�쐼,5.5,��,-1.6,73.5,0,0,0.5,1
2021-12-27T05:09:00+09:00,2.6,�쐼,6,��쐼,-1.6,73.2,0,0,0.5,1
2021-12-27T05:10:00+09:00,2.8,�쐼,6,��쐼,-1.6,73,0,0,0.5,1
2021-12-27T05:11:00+09:00,2.9,�쐼,6,��쐼,-1.7,72.8,0,0,0.5,1
2021-12-27T05:12:00+09:00,3,�쐼,6,��쐼,-1.7,72.8,0,0,0.5,1
2021-12-27T05:13:00+09:00,3.1,�쐼,6,��쐼,-1.6,72.8,0,0,0.5,1
2021-12-27T05:14:00+09:00,3.1,��쐼,6,��쐼,-1.6,72.9,0,0,0.5,1
2021-12-27T05:15:00+09:00,3.2,��쐼,7.3,��쐼,-1.6,72.7,0,0,0.5,1
2021-12-27T05:16:00+09:00,3.4,��쐼,8.1,��쐼,-1.6,72.6,0,0,0.5,1
2021-12-27T05:17:00+09:00,3.6,��쐼,8.5,���쐼,-1.5,72.9,0,0,0.5,1
2021-12-27T05:18:00+09:00,3.9,�쐼,8.6,�쐼,-1.4,73.2,0,0,0.5,1
2021-12-27T05:19:00+09:00,3.8,�쐼,8.6,�쐼,-1.4,73,0,0,0.5,1
2021-12-27T05:20:00+09:00,3.8,�쐼,8.6,�쐼,-1.4,72.8,0,0,0.5,1
2021-12-27T05:21:00+09:00,3.8,�쐼,8.6,�쐼,-1.4,72.7,0,0,0.5,1
2021-12-27T05:22:00+09:00,3.8,�쐼,8.6,�쐼,-1.5,72.1,0,0,0.5,1
2021-12-27T05:23:00+09:00,3.6,�쐼,8.6,�쐼,-1.5,71.8,0,0,0.5,1
2021-12-27T05:24:00+09:00,3.6,�쐼,8.6,�쐼,-1.5,72.2,0,0,0.5,1
2021-12-27T05:25:00+09:00,3.4,�쐼,8.6,�쐼,-1.5,71.8,0,0,0.5,1
2021-12-27T05:26:00+09:00,3,�쐼,8.6,�쐼,-1.6,71.8,0,0,0.5,1
2021-12-27T05:27:00+09:00,2.7,�쐼,8.6,�쐼,-1.6,71.7,0,0,0.5,1
2021-12-27T05:28:00+09:00,2.3,�쐼,5.5,���쐼,-1.6,71.9,0,0,0.5,1
2021-12-27T05:29:00+09:00,2.3,�쐼,5.5,���쐼,-1.5,72,0,0,0.5,1
2021-12-27T05:30:00+09:00,2.1,�쐼,4.7,��,-1.5,72.1,0,0,0.5,1
2021-12-27T05:31:00+09:00,1.9,�쐼,4.7,��,-1.5,71.7,0,0,0.5,1
2021-12-27T05:32:00+09:00,2,�쐼,5,��,-1.5,71.9,0,0,0.5,1
2021-12-27T05:33:00+09:00,2.2,�쐼,5,��,-1.5,72.1,0,0,0.5,1
2021-12-27T05:34:00+09:00,2.2,�쐼,5,��,-1.5,72,0,0,0.5,1
2021-12-27T05:35:00+09:00,2.3,�쐼,5,��,-1.5,71.9,0,0,0.5,1
2021-12-27T05:36:00+09:00,2.5,���쐼,5,��,-1.5,72,0,0,0.5,1
2021-12-27T05:37:00+09:00,2.5,���쐼,5,��,-1.5,72.3,0,0,0.5,1
2021-12-27T05:38:00+09:00,2.5,���쐼,5,��,-1.5,72.2,0,0,0.5,1
2021-12-27T05:39:00+09:00,2.4,���쐼,5,��,-1.5,72.7,0,0,0.5,1
2021-12-27T05:40:00+09:00,2.5,���쐼,5,��,-1.6,72.5,0,0,0.5,1
2021-12-27T05:41:00+09:00,2.6,�쐼,5,��,-1.6,72.6,0,0,0.5,1
2021-12-27T05:42:00+09:00,2.6,�쐼,4.5,���쐼,-1.7,72.7,0,0,0.5,1
2021-12-27T05:43:00+09:00,2.6,�쐼,5,���쐼,-1.7,73.4,0,0,0.5,1
2021-12-27T05:44:00+09:00,2.8,�쐼,5,���쐼,-1.7,73.7,0,0,0.5,1
2021-12-27T05:45:00+09:00,2.9,�쐼,5,���쐼,-1.6,74.1,0,0,0.5,1
2021-12-27T05:46:00+09:00,2.8,�쐼,5,���쐼,-1.6,74.7,0,0,0.5,1
2021-12-27T05:47:00+09:00,2.8,�쐼,5,���쐼,-1.6,74.6,0,0,0.5,1
2021-12-27T05:48:00+09:00,2.9,�쐼,5,���쐼,-1.6,74.5,0,0,0.5,1
2021-12-27T05:49:00+09:00,3,�쐼,5,���쐼,-1.7,74.3,0,0,0.5,1
2021-12-27T05:50:00+09:00,2.9,�쐼,5,���쐼,-1.8,74,0,0,0.5,1
2021-12-27T05:51:00+09:00,3,�쐼,5,���쐼,-1.8,74.2,0,0,0.5,1
2021-12-27T05:52:00+09:00,3,�쐼,5,���쐼,-1.8,74.3,0,0,0.5,1
2021-12-27T05:53:00+09:00,3,�쐼,5,�쐼,-1.8,74.4,0,0,0.5,1
2021-12-27T05:54:00+09:00,2.8,�쐼,5,�쐼,-1.8,74.3,0,0,0.5,1
2021-12-27T05:55:00+09:00,2.7,�쐼,5,�쐼,-1.8,74.3,0,0,0.5,1
2021-12-27T05:56:00+09:00,2.8,�쐼,5,�쐼,-1.7,74.7,0,0,0.5,1
2021-12-27T05:57:00+09:00,2.7,�쐼,5,�쐼,-1.6,74.9,0,0,0.5,1
2021-12-27T05:58:00+09:00,2.6,�쐼,5,�쐼,-1.6,74.7,0,0,0.5,1
2021-12-27T05:59:00+09:00,2.5,�쐼,5,�쐼,-1.6,74.2,0,0,0.5,1
2021-12-27T06:00:00+09:00,2.6,�쐼,5.4,��,-1.6,74,0,0,0.5,1
2021-12-27T06:01:00+09:00,2.6,���쐼,5.4,��,-1.6,74.2,0,0,0.5,1
2021-12-27T06:02:00+09:00,2.5,���쐼,5.4,��,-1.6,74.4,0,0,0.5,1
2021-12-27T06:03:00+09:00,2.5,���쐼,5.4,��,-1.7,73.8,0,0,0.5,1
2021-12-27T06:04:00+09:00,2.8,���쐼,5.4,��,-1.7,73.5,0,0,0.5,1
2021-12-27T06:05:00+09:00,2.8,���쐼,5.4,��,-1.7,74,0,0,0.5,1
2021-12-27T06:06:00+09:00,2.9,���쐼,5.4,��,-1.7,73.9,0,0,0.5,1
2021-12-27T06:07:00+09:00,3.1,���쐼,5.4,��,-1.7,74,0,0,0.5,1
2021-12-27T06:08:00+09:00,3.3,���쐼,5.4,��,-1.7,73.8,0,0,0.5,1
2021-12-27T06:09:00+09:00,3.5,���쐼,5.4,��,-1.7,73.5,0,0,0.5,1
2021-12-27T06:10:00+09:00,3.4,�쐼,5.4,��쐼,-1.7,73.5,0,0,0.5,1
2021-12-27T06:11:00+09:00,3.6,�쐼,6.1,�쐼,-1.7,73.3,0,0,0.5,1
2021-12-27T06:12:00+09:00,3.8,�쐼,6.1,�쐼,-1.7,73.3,0,0,0.5,1
2021-12-27T06:13:00+09:00,4,�쐼,6.1,�쐼,-1.7,73.3,0,0,0.5,1
2021-12-27T06:14:00+09:00,4,�쐼,6.1,�쐼,-1.7,73.5,0,0,0.5,1
2021-12-27T06:15:00+09:00,4.2,�쐼,6.3,���쐼,-1.6,73.4,0,0,0.5,1
2021-12-27T06:16:00+09:00,4.3,�쐼,6.3,���쐼,-1.6,73.4,0,0,0.5,1
2021-12-27T06:17:00+09:00,4.4,�쐼,7.5,�쐼,-1.6,73.1,0,0,0.5,1
2021-12-27T06:18:00+09:00,4.4,�쐼,7.5,�쐼,-1.7,72.9,0,0,0.5,1
2021-12-27T06:19:00+09:00,4.6,�쐼,7.5,�쐼,-1.6,72.9,0,0,0.5,1
2021-12-27T06:20:00+09:00,4.7,�쐼,7.5,�쐼,-1.6,73,0,0,0.5,1
2021-12-27T06:21:00+09:00,4.8,�쐼,7.5,�쐼,-1.6,72.6,0,0,0.5,1
2021-12-27T06:22:00+09:00,4.8,�쐼,7.5,�쐼,-1.6,72.4,0,0,0.5,1
2021-12-27T06:23:00+09:00,4.9,�쐼,7.7,�쐼,-1.6,72.3,0,0,0.5,1
2021-12-27T06:24:00+09:00,5.1,�쐼,7.7,�쐼,-1.6,72.3,0,0,0.5,1
2021-12-27T06:25:00+09:00,5.1,�쐼,7.8,��쐼,-1.6,72.1,0,0,0.5,1
2021-12-27T06:26:00+09:00,5.2,�쐼,7.8,��쐼,-1.6,72,0,0,0.5,1
2021-12-27T06:27:00+09:00,5,�쐼,7.8,��쐼,-1.6,71.8,0,0,0.5,1
2021-12-27T06:28:00+09:00,5.2,�쐼,7.8,��쐼,-1.6,71.6,0,0,0.5,1